User: anonymous   Login
Location: Wawayanda State Park
(41.1833°N, 74.4333°W)
Time: 19:14:55
(UTC-05:00)
Language:

RESURS DK-1 - Orbit

View from above orbital plane
View from above orbital plane
View from above satellite
View from above satellite

Ground track
Ground track

The orbit data is extracted from the following two-line orbital elements,

1 29228U 06021A   16337.86117208  .00000192  00000-0  22062-4 0  9993
2 29228  69.9360 237.5305 0007859 277.1904  82.8363 15.02053318578628
Epoch (UTC): 02 December 2016 20:40:05
Eccentricity: 0.0007859
inclination: 69.9360°
perigee height: 555 km
apogee height: 566 km
right ascension of ascending node: 237.5305°
argument of perigee: 277.1904°
revolutions per day: 15.02053318
mean anomaly at epoch: 82.8363°
orbit number at epoch: 57862

The dashed part of the orbit path shows where the satellite is in the earth's shadow,  

DLR